FW3814 Weather Reports


time (UTC)temp
C
wind
direction
speed
KPH
gust
KPH
rain 1hr
cm
rain 24hr
cm
rain mn
cm
humidity
%
barometer
mb
20260906053505 22 0 0.0 0.0 0.00 0.00 0.00 45 1021.3
20260906053005 22 360 1.6 4.8 0.00 0.00 0.00 45 1021.3
20260906052505 22 360 1.6 4.8 0.00 0.00 0.00 44 1021.3
20260906052006 22 0 0.0 0.0 0.00 0.00 0.00 44 1021.1
20260906051505 22 0 0.0 0.0 0.00 0.00 0.00 44 1020.9
20260906051005 22 19 0.0 3.2 0.00 0.00 0.00 43 1020.8
20260906050505 23 37 1.6 3.2 0.00 0.00 0.00 43 1020.6
20260906050005 23 29 1.6 4.8 0.00 0.00 0.00 43 1020.6
20260906045505 23 18 1.6 4.8 0.00 0.00 0.00 43 1020.7
20260906045005 23 22 0.0 4.8 0.00 0.00 0.00 43 1020.6
20260906044505 23 41 3.2 6.4 0.00 0.00 0.00 43 1020.4
20260906044005 23 45 4.8 6.4 0.00 0.00 0.00 43 1020.4
20260906043505 23 59 3.2 6.4 0.00 0.00 0.00 43 1020.3
20260906043005 23 75 4.8 8.0 0.00 0.00 0.00 43 1020.4
20260906042505 23 57 4.8 8.0 0.00 0.00 0.00 43 1020.4
20260906042005 23 49 3.2 8.0 0.00 0.00 0.00 43 1020.3
20260906041505 23 65 4.8 6.4 0.00 0.00 0.00 43 1020.4
20260906041005 23 66 6.4 6.4 0.00 0.00 0.00 42 1020.3
20260906040505 23 58 6.4 6.4 0.00 0.00 0.00 42 1020.3
20260906040005 23 40 6.4 6.4 0.00 0.00 0.00 42 1020.3
20260906035526 23 34 3.2 6.4 0.00 0.00 0.00 42 1020.3
20260906035005 23 22 3.2 6.4 0.00 0.00 0.00 41 1020.2
20260906034505 23 21 3.2 6.4 0.00 0.00 0.00 41 1020.1
20260906034005 23 33 1.6 6.4 0.00 0.00 0.00 41 1020.3
20260906033505 23 35 1.6 4.8 0.00 0.00 0.00 42 1020.2
20260906033005 23 20 0.0 4.8 0.00 0.00 0.00 42 1020.1
20260906032505 23 0 0.0 0.0 0.00 0.00 0.00 43 1020.2
20260906032005 23 0 0.0 0.0 0.00 0.00 0.00 43 1020.0
20260906031526 23 0 0.0 0.0 0.00 0.00 0.00 43 1020.1
20260906031005 22 0 0.0 0.0 0.00 0.00 0.00 43 1020.1
20260906030526 22 360 0.0 3.2 0.00 0.00 0.00 43 1020.1
20260906030005 23 360 0.0 3.2 0.00 0.00 0.00 42 1019.9
20260906025526 23 17 0.0 4.8 0.00 0.00 0.00 41 1020.0
20260906025026 23 17 1.6 6.4 0.00 0.00 0.00 41 1019.9
20260906024505 23 24 1.6 6.4 0.00 0.00 0.00 41 1019.9
20260906024005 23 41 0.0 6.4 0.00 0.00 0.00 41 1019.9
20260906023505 24 22 0.0 1.6 0.00 0.00 0.00 41 1019.9
20260906023005 24 22 0.0 1.6 0.00 0.00 0.00 41 1019.8
20260906022505 24 22 0.0 1.6 0.00 0.00 0.00 40 1019.7
20260906022005 24 0 0.0 0.0 0.00 0.00 0.00 40 1019.9
20260906021505 24 0 0.0 0.0 0.00 0.00 0.00 40 1019.8
20260906021005 24 0 0.0 0.0 0.00 0.00 0.00 41 1019.6
20260906020505 25 0 0.0 0.0 0.00 0.00 0.00 40 1019.6
20260906020005 25 22 0.0 1.6 0.00 0.00 0.00 40 1019.6
20260906015505 25 5 0.0 3.2 0.00 0.00 0.00 40 1019.4
20260906015005 25 5 0.0 3.2 0.00 0.00 0.00 41 1019.4
20260906014505 25 22 0.0 1.6 0.00 0.00 0.00 41 1019.5
20260906014005 25 22 0.0 1.6 0.00 0.00 0.00 41 1019.5
20260906013505 25 22 0.0 1.6 0.00 0.00 0.00 41 1019.3
20260906013005 25 22 0.0 1.6 0.00 0.00 0.00 41 1019.5
20260906012505 25 0 0.0 0.0 0.00 0.00 0.00 41 1019.4
20260906012005 25 22 0.0 1.6 0.00 0.00 0.00 41 1019.3
20260906011505 25 22 0.0 3.2 0.00 0.00 0.00 41 1019.3
20260906011005 24 20 0.0 3.2 0.00 0.00 0.00 40 1019.3
20260906010505 24 35 0.0 3.2 0.00 0.00 0.00 40 1019.5
20260906010005 24 45 0.0 3.2 0.00 0.00 0.00 40 1019.3
20260906005505 24 27 1.6 3.2 0.00 0.00 0.00 40 1019.4
20260906005005 24 29 3.2 8.0 0.00 0.00 0.00 40 1019.3
20260906004526 24 34 4.8 8.0 0.00 0.00 0.00 40 1019.4
20260906004005 25 66 4.8 9.7 0.00 0.00 0.00 40 1019.2
20260906003526 25 96 8.0 12.9 0.00 0.00 0.00 40 1019.2
20260906003026 25 93 12.9 19.3 0.00 0.00 0.00 40 1019.1
20260906002505 25 84 11.3 19.3 0.00 0.00 0.00 40 1019.2
20260906002005 25 75 6.4 11.3 0.00 0.00 0.00 40 1019.3
20260906001505 25 62 3.2 9.7 0.00 0.00 0.00 38 1019.0
20260906001026 25 29 3.2 3.2 0.00 0.00 0.00 38 1018.9
20260906000505 25 22 4.8 6.4 0.00 0.00 0.00 38 1019.0
20260906000005 25 26 4.8 8.0 0.00 0.00 0.00 38 1019.0
20260905235505 25 20 6.4 8.0 0.00 0.00 0.00 39 1018.9
20260905235005 25 10 6.4 8.0 0.00 0.00 0.00 40 1019.0
20260905234505 25 15 4.8 6.4 0.00 0.00 0.00 40 1018.9
20260905234005 25 17 4.8 6.4 0.00 0.00 0.00 40 1018.9
20260905233505 25 7 3.2 4.8 0.00 0.00 0.00 40 1019.0
20260905233026 25 350 3.2 8.0 0.00 0.00 0.00 40 1018.9
20260905232505 24 355 3.2 8.0 0.00 0.00 0.00 41 1019.0
20260905232005 24 7 3.2 8.0 0.00 0.00 0.00 41 1019.2
20260905231505 24 346 3.2 8.0 0.00 0.00 0.00 41 1019.0
20260905231003 24 1 3.2 8.0 0.00 0.00 0.00 41 1018.9
20260905230503 24 353 3.2 8.0 0.00 0.00 0.00 41 1018.9
20260905230003 24 345 1.6 6.4 0.00 0.00 0.00 41 1018.9
20260905225503 24 2 3.2 6.4 0.00 0.00 0.00 40 1018.9
20260905225003 25 3 4.8 6.4 0.00 0.00 0.00 40 1019.0
20260905224503 25 358 4.8 6.4 0.00 0.00 0.00 40 1018.9
20260905224024 25 1 4.8 6.4 0.00 0.00 0.00 40 1018.9
20260905223503 25 7 4.8 6.4 0.00 0.00 0.00 40 1018.8
20260905223003 25 3 3.2 6.4 0.00 0.00 0.00 38 1018.8
20260905222524 26 3 3.2 4.8 0.00 0.00 0.00 38 1018.7
20260905222003 26 13 3.2 9.7 0.00 0.00 0.00 37 1018.7
20260905221503 26 23 4.8 9.7 0.00 0.00 0.00 35 1018.8
20260905221003 26 12 6.4 6.4 0.00 0.00 0.00 35 1018.6
20260905220503 27 14 8.0 9.7 0.00 0.00 0.00 35 1018.6
20260905220004 27 21 6.4 12.9 0.00 0.00 0.00 35 1018.7
20260905215503 27 19 4.8 12.9 0.00 0.00 0.00 35 1018.7
20260905215003 27 22 3.2 9.7 0.00 0.00 0.00 35 1018.6
20260905214503 27 22 3.2 9.7 0.00 0.00 0.00 35 1018.6
20260905214003 27 22 1.6 4.8 0.00 0.00 0.00 35 1018.6
20260905213503 27 13 1.6 4.8 0.00 0.00 0.00 35 1018.6
20260905213024 27 11 3.2 8.0 0.00 0.00 0.00 35 1018.5
20260905212503 27 12 4.8 8.0 0.00 0.00 0.00 36 1018.4
20260905212003 27 17 3.2 8.0 0.00 0.00 0.00 36 1018.4
20260905211524 27 22 3.2 8.0 0.00 0.00 0.00 37 1018.5
20260905211003 27 30 3.2 8.0 0.00 0.00 0.00 37 1018.3
20260905210503 27 25 4.8 6.4 0.00 0.00 0.00 38 1018.1
20260905210003 26 19 4.8 8.0 0.00 0.00 0.00 39 1018.1
20260905205503 26 11 3.2 8.0 0.00 0.00 0.00 40 1018.1
20260905205024 26 13 4.8 6.4 0.00 0.00 0.00 40 1018.3
20260905204503 26 14 3.2 6.4 0.00 0.00 0.00 41 1018.1
20260905204024 26 11 3.2 6.4 0.00 0.00 0.00 41 1018.0
20260905203503 26 13 4.8 6.4 0.00 0.00 0.00 41 1017.9
20260905203003 26 9 3.2 6.4 0.00 0.00 0.00 42 1018.0
20260905202503 26 7 4.8 6.4 0.00 0.00 0.00 42 1018.0
20260905202003 26 9 4.8 6.4 0.00 0.00 0.00 43 1018.0
20260905201503 26 8 3.2 4.8 0.00 0.00 0.00 44 1018.0
20260905201003 26 2 3.2 4.8 0.00 0.00 0.00 44 1017.7
20260905200503 26 2 3.2 4.8 0.00 0.00 0.00 44 1018.0
20260905200003 26 9 1.6 4.8 0.00 0.00 0.00 44 1017.9
20260905195503 27 8 1.6 3.2 0.00 0.00 0.00 45 1017.8
20260905195024 27 3 1.6 3.2 0.00 0.00 0.00 45 1017.8
20260905194503 27 6 1.6 4.8 0.00 0.00 0.00 46 1017.8
20260905194003 27 13 1.6 4.8 0.00 0.00 0.00 47 1017.8
20260905193503 27 16 1.6 4.8 0.00 0.00 0.00 48 1017.6
20260905193003 27 3 0.0 4.8 0.00 0.00 0.00 45 1017.7
20260905192503 27 16 1.6 6.4 0.00 0.00 0.00 51 1017.6
20260905192024 27 16 3.2 6.4 0.00 0.00 0.00 52 1017.5
20260905191524 27 11 0.0 1.6 0.00 0.00 0.00 54 1017.5
20260905191003 27 348 0.0 1.6 0.00 0.00 0.00 56 1017.3
20260905190503 27 1 0.0 1.6 0.00 0.00 0.00 58 1017.3
20260905190003 26 22 1.6 6.4 0.00 0.00 0.00 60 1017.3
20260905185503 26 22 1.6 6.4 0.00 0.00 0.00 61 1017.2
20260905185003 26 0 0.0 0.0 0.00 0.00 0.00 60 1017.1
20260905184503 26 22 0.0 3.2 0.00 0.00 0.00 60 1017.2
20260905184003 26 22 0.0 3.2 0.00 0.00 0.00 61 1016.9
20260905183503 26 0 0.0 0.0 0.00 0.00 0.00 61 1016.9
20260905183003 26 0 0.0 0.0 0.00 0.00 0.00 62 1016.8
20260905182503 26 0 0.0 0.0 0.00 0.00 0.00 62 1016.7
20260905182003 26 0 0.0 0.0 0.00 0.00 0.00 61 1016.8
20260905181503 27 0 0.0 0.0 0.00 0.00 0.00 60 1016.6
20260905181003 27 0 0.0 0.0 0.00 0.00 0.00 60 1016.6
20260905180503 27 0 0.0 0.0 0.00 0.00 0.00 53 1016.6
20260905180024 27 0 0.0 0.0 0.00 0.00 0.00 53 1016.5
20260905175503 28 0 0.0 0.0 0.00 0.00 0.00 51 1016.6
20260905175003 28 0 0.0 0.0 0.00 0.00 0.00 51 1016.5
20260905174503 28 0 0.0 0.0 0.00 0.00 0.00 50 1016.5
20260905174003 28 0 0.0 0.0 0.00 0.00 0.00 51 1016.5
20260905173503 28 0 0.0 0.0 0.00 0.00 0.00 51 1016.4
20260905173024 28 0 0.0 0.0 0.00 0.00 0.00 52 1016.4
20260905172503 28 0 0.0 0.0 0.00 0.00 0.00 52 1016.2
20260905172003 28 0 0.0 0.0 0.00 0.00 0.00 53 1016.1
20260905171503 29 0 0.0 0.0 0.00 0.00 0.00 52 1016.2
20260905171024 29 0 0.0 0.0 0.00 0.00 0.00 52 1016.3
20260905170503 30 0 0.0 0.0 0.00 0.00 0.00 51 1016.3
20260905170003 30 0 0.0 0.0 0.00 0.00 0.00 51 1016.3
20260905165503 30 0 0.0 0.0 0.00 0.00 0.00 48 1016.2
20260905165003 30 0 0.0 0.0 0.00 0.00 0.00 47 1016.2
20260905164503 30 0 0.0 0.0 0.00 0.00 0.00 46 1016.2
20260905164003 30 0 0.0 0.0 0.00 0.00 0.00 46 1016.2
20260905163503 30 0 0.0 0.0 0.00 0.00 0.00 46 1016.2
20260905163003 30 0 0.0 0.0 0.00 0.00 0.00 46 1016.1
20260905162503 31 338 0.0 1.6 0.00 0.00 0.00 47 1016.1
20260905162003 31 338 0.0 1.6 0.00 0.00 0.00 46 1016.1
20260905161503 31 360 0.0 1.6 0.00 0.00 0.00 47 1016.1
20260905161003 31 360 0.0 1.6 0.00 0.00 0.00 46 1016.1
20260905160503 31 0 0.0 0.0 0.00 0.00 0.00 47 1016.2
20260905160003 31 0 0.0 0.0 0.00 0.00 0.00 47 1016.1
20260905155503 31 0 0.0 0.0 0.00 0.00 0.00 48 1016.2
20260905155003 31 0 0.0 0.0 0.00 0.00 0.00 49 1016.1
20260905154503 31 0 0.0 0.0 0.00 0.00 0.00 49 1016.0
20260905154003 30 0 0.0 0.0 0.00 0.00 0.00 48 1015.9
20260905153503 30 0 0.0 0.0 0.00 0.00 0.00 46 1015.9
20260905153003 31 0 0.0 0.0 0.00 0.00 0.00 45 1016.1
20260905152503 31 315 0.0 1.6 0.00 0.00 0.00 43 1016.1
20260905152003 31 315 0.0 1.6 0.00 0.00 0.00 42 1016.2
20260905151503 31 315 0.0 1.6 0.00 0.00 0.00 43 1016.1
20260905151003 31 315 0.0 1.6 0.00 0.00 0.00 42 1016.2
20260905150524 32 315 0.0 1.6 0.00 0.00 0.00 43 1016.2
20260905150003 32 315 0.0 1.6 0.00 0.00 0.00 43 1016.3
20260905145503 31 0 0.0 0.0 0.00 0.00 0.00 42 1016.2
20260905145024 31 315 0.0 1.6 0.00 0.00 0.00 42 1016.2
20260905144524 31 315 0.0 1.6 0.00 0.00 0.00 42 1016.2
20260905144003 31 329 0.0 6.4 0.00 0.00 0.00 42 1016.1
20260905143503 32 304 1.6 6.4 0.00 0.00 0.00 42 1016.1
20260905143003 32 304 1.6 8.0 0.00 0.00 0.00 41 1016.2
20260905142524 32 306 4.8 9.7 0.00 0.00 0.00 42 1016.2
20260905142003 32 304 6.4 9.7 0.00 0.00 0.00 41 1016.2
20260905141503 32 304 4.8 9.7 0.00 0.00 0.00 38 1016.3
20260905141003 32 294 1.6 6.4 0.00 0.00 0.00 38 1016.2
20260905140503 32 0 0.0 0.0 0.00 0.00 0.00 38 1016.2
20260905140004 32 315 0.0 1.6 0.00 0.00 0.00 38 1016.3
20260905135503 32 315 0.0 1.6 0.00 0.00 0.00 39 1016.3
20260905135003 32 315 0.0 1.6 0.00 0.00 0.00 38 1016.3
20260905134503 32 292 0.0 1.6 0.00 0.00 0.00 39 1016.3
20260905134003 32 301 0.0 1.6 0.00 0.00 0.00 40 1016.5
20260905133503 32 315 0.0 1.6 0.00 0.00 0.00 40 1016.4
20260905133003 32 274 0.0 6.4 0.00 0.00 0.00 40 1016.6
20260905132503 32 290 1.6 6.4 0.00 0.00 0.00 42 1016.7
20260905132003 32 288 1.6 6.4 0.00 0.00 0.00 42 1016.6
20260905131503 32 293 1.6 3.2 0.00 0.00 0.00 42 1016.6
20260905131024 32 303 1.6 3.2 0.00 0.00 0.00 42 1016.6
20260905130503 32 315 0.0 3.2 0.00 0.00 0.00 45 1016.8
20260905130003 32 315 0.0 3.2 0.00 0.00 0.00 45 1016.7
20260905125503 32 0 0.0 0.0 0.00 0.00 0.00 44 1016.8
20260905125003 31 0 0.0 0.0 0.00 0.00 0.00 44 1016.8
20260905124503 31 315 0.0 3.2 0.00 0.00 0.00 45 1016.9
20260905124003 31 321 1.6 3.2 0.00 0.00 0.00 45 1017.0
20260905123503 31 321 0.0 1.6 0.00 0.00 0.00 45 1017.0
20260905123003 31 307 1.6 3.2 0.00 0.00 0.00 45 1016.9
20260905122503 31 308 0.0 3.2 0.00 0.00 0.00 44 1016.9
20260905122003 31 315 0.0 1.6 0.00 0.00 0.00 45 1016.9
20260905121503 31 315 0.0 1.6 0.00 0.00 0.00 46 1017.0
20260905121024 31 315 0.0 1.6 0.00 0.00 0.00 47 1016.9
20260905120503 31 315 0.0 3.2 0.00 0.00 0.00 48 1016.9
20260905120024 31 332 1.6 6.4 0.00 0.00 0.00 48 1016.9
20260905115503 31 310 3.2 6.4 0.00 0.00 0.00 49 1016.9
20260905115003 30 305 4.8 8.0 0.00 0.00 0.00 48 1017.1
20260905114505 30 315 3.2 8.0 0.00 0.00 0.00 47 1017.1
20260905114026 31 315 0.0 4.8 0.00 0.00 0.00 48 1017.1
20260905113505 30 273 0.0 1.6 0.00 0.00 0.00 49 1017.2
20260905113005 30 247 0.0 1.6 0.00 0.00 0.00 48 1017.2
20260905112526 30 247 0.0 1.6 0.00 0.00 0.00 48 1017.1
20260905112005 30 315 0.0 1.6 0.00 0.00 0.00 48 1017.1
20260905111505 30 336 0.0 3.2 0.00 0.00 0.00 47 1017.4
20260905111005 30 78 0.0 3.2 0.00 0.00 0.00 47 1017.1
20260905110526 30 0 0.0 0.0 0.00 0.00 0.00 47 1017.3
20260905110005 30 315 0.0 1.6 0.00 0.00 0.00 47 1017.1
20260905105505 30 315 0.0 1.6 0.00 0.00 0.00 47 1017.2
20260905105026 29 315 0.0 1.6 0.00 0.00 0.00 47 1017.3
20260905104505 29 315 0.0 1.6 0.00 0.00 0.00 47 1017.3
20260905104005 29 287 1.6 6.4 0.00 0.00 0.00 47 1017.2
20260905103505 29 295 1.6 6.4 0.00 0.00 0.00 46 1017.3
20260905103005 29 306 4.8 14.5 0.00 0.00 0.00 48 1017.2
20260905102505 29 297 4.8 14.5 0.00 0.00 0.00 47 1017.2
20260905102005 29 298 3.2 14.5 0.00 0.00 0.00 48 1017.2
20260905101505 29 336 1.6 6.4 0.00 0.00 0.00 48 1017.2
20260905101005 29 0 0.0 0.0 0.00 0.00 0.00 49 1017.2
20260905100505 29 0 0.0 0.0 0.00 0.00 0.00 50 1017.2
20260905100005 29 315 0.0 1.6 0.00 0.00 0.00 50 1017.3
20260905095505 28 315 0.0 1.6 0.00 0.00 0.00 48 1017.3
20260905095005 28 0 0.0 0.0 0.00 0.00 0.00 50 1017.2
20260905094505 28 0 0.0 0.0 0.00 0.00 0.00 50 1017.3
20260905094005 28 0 0.0 0.0 0.00 0.00 0.00 50 1017.3
20260905093526 28 0 0.0 0.0 0.00 0.00 0.00 50 1017.3
20260905093005 28 0 0.0 0.0 0.00 0.00 0.00 50 1017.3
20260905092505 28 0 0.0 0.0 0.00 0.00 0.00 50 1017.3
20260905092005 28 0 0.0 0.0 0.00 0.00 0.00 51 1017.1
20260905091505 28 0 0.0 0.0 0.00 0.00 0.00 52 1017.2
20260905091026 28 0 0.0 0.0 0.00 0.00 0.00 53 1017.0
20260905090505 27 0 0.0 0.0 0.00 0.00 0.00 59 1017.0
20260905090026 27 0 0.0 0.0 0.00 0.00 0.00 59 1017.0
20260905085526 27 0 0.0 0.0 0.00 0.00 0.00 59 1017.1
20260905085005 26 0 0.0 0.0 0.00 0.00 0.00 60 1017.1
20260905084505 26 0 0.0 0.0 0.00 0.00 0.00 60 1017.2
20260905084005 26 0 0.0 0.0 0.00 0.00 0.00 61 1017.1
20260905083505 25 0 0.0 0.0 0.00 0.00 0.00 61 1017.0
20260905083005 25 0 0.0 0.0 0.00 0.00 0.00 62 1017.0
20260905082505 25 0 0.0 0.0 0.00 0.00 0.00 62 1016.9
20260905082026 25 0 0.0 0.0 0.00 0.00 0.00 61 1016.9
20260905081526 25 0 0.0 0.0 0.00 0.00 0.00 61 1017.0
20260905081026 25 0 0.0 0.0 0.00 0.00 0.00 61 1016.8
20260905080526 25 0 0.0 0.0 0.00 0.00 0.00 61 1016.8
20260905080005 25 0 0.0 0.0 0.00 0.00 0.00 61 1017.0
20260905075505 25 0 0.0 0.0 0.00 0.00 0.00 62 1016.7
20260905075005 25 0 0.0 0.0 0.00 0.00 0.00 62 1016.7
20260905074505 24 0 0.0 0.0 0.00 0.00 0.00 62 1016.7
20260905074005 24 0 0.0 0.0 0.00 0.00 0.00 63 1016.5
20260905073505 24 0 0.0 0.0 0.00 0.00 0.00 63 1016.6
20260905073005 23 0 0.0 0.0 0.00 0.00 0.00 64 1016.7
20260905072505 23 0 0.0 0.0 0.00 0.00 0.00 64 1016.6
20260905072026 23 0 0.0 0.0 0.00 0.00 0.00 64 1016.6
20260905071505 23 0 0.0 0.0 0.00 0.00 0.00 65 1016.6
20260905071005 23 0 0.0 0.0 0.00 0.00 0.00 65 1016.5
20260905070505 22 0 0.0 0.0 0.00 0.00 0.00 66 1016.5
20260905070005 22 0 0.0 0.0 0.00 0.00 0.00 66 1016.4
20260905065505 22 0 0.0 0.0 0.00 0.00 0.00 65 1016.5
20260905065005 22 0 0.0 0.0 0.00 0.00 0.00 65 1016.3
20260905064505 22 0 0.0 0.0 0.00 0.00 0.00 65 1016.5
20260905064026 22 0 0.0 0.0 0.00 0.00 0.00 64 1016.4
20260905063505 22 0 0.0 0.0 0.00 0.00 0.00 65 1016.4
20260905063026 22 0 0.0 0.0 0.00 0.00 0.00 65 1016.5
20260905062505 22 0 0.0 0.0 0.00 0.00 0.00 65 1016.3
20260905062005 22 0 0.0 0.0 0.00 0.00 0.00 65 1016.4
20260905061505 22 0 0.0 0.0 0.00 0.00 0.00 64 1016.3
20260905061005 22 0 0.0 0.0 0.00 0.00 0.00 65 1016.2
20260905060505 22 0 0.0 0.0 0.00 0.00 0.00 66 1016.1
20260905060005 22 0 0.0 0.0 0.00 0.00 0.00 66 1016.2
20260905055505 22 0 0.0 0.0 0.00 0.00 0.00 70 1016.1
20260905055005 22 0 0.0 0.0 0.00 0.00 0.00 70 1016.3
20260905054505 21 8 1.6 6.4 0.00 0.00 0.00 71 1016.1
20260905054026 21 11 4.8 6.4 0.00 0.00 0.00 72 1016.2